Simultaneous Nadir Overpasses (SNOs) Predictions

Prediction of SNOs between NOAA-20 and LANDSAT-8 Satellite Orbit:

Table of predicted SNOs for the next 14.0 days since TLE Epoch: 3/9/2018
Index Date (NOAA-20) Time (NOAA-20) Lat,Lon (NOAA-20) SZA (NOAA-20 ) Date (LANDSAT-8) Time (LANDSAT-8) Lat,Lon (LANDSAT-8) SZA (LANDSAT-8 ) Distance(km) Time Diff (sec)
1 03/10/2018 06:32:14 70.18, 78.08 74.30 03/10/2018 06:33:16 70.17, 78.09 74.28 0.71 62
2 03/10/2018 07:22:55 -70.04,-114.40 105.86 03/10/2018 07:22:46 -70.06,-114.44 105.85 2.27 9
3 03/10/2018 08:13:31 69.49, 53.72 73.55 03/10/2018 08:12:21 69.51, 52.45 73.63 49.67 70
4 03/12/2018 22:49:08 70.14,-166.10 73.21 03/12/2018 22:49:44 70.14,-166.08 73.19 1.09 36
5 03/12/2018 23:39:49 -70.01, 1.43 106.95 03/12/2018 23:39:14 -70.02, 1.39 106.93 2.24 35
6 03/15/2018 14:15:27 -70.75, 141.40 107.20 03/15/2018 14:16:36 -70.64, 142.89 107.38 56.48 69
7 03/15/2018 15:06:01 70.11, -50.28 72.11 03/15/2018 15:06:11 70.10, -50.26 72.09 1.87 10
8 03/15/2018 15:56:42 -69.97, 117.25 108.05 03/15/2018 15:55:41 -69.99, 117.22 108.03 2.03 61
9 03/18/2018 06:32:11 -70.20,-101.95 108.86 03/18/2018 06:33:12 -70.17,-101.92 108.90 3.39 61
10 03/18/2018 07:22:55 70.08, 65.54 71.01 03/18/2018 07:22:39 70.05, 65.56 70.99 3.08 16
11 03/18/2018 08:13:27 -69.46,-126.23 109.65 03/18/2018 08:12:17 -69.51,-127.55 109.55 51.96 70
12 03/20/2018 22:49:04 -70.11, 13.96 110.01 03/20/2018 22:49:40 -70.12, 13.90 110.01 2.78 36
13 03/20/2018 23:39:48 70.00,-178.56 69.86 03/20/2018 23:39:07 70.01,-178.62 69.88 2.56 41
14 03/23/2018 14:15:23 70.54, -38.26 69.39 03/23/2018 14:16:34 70.39, -37.46 69.21 33.90 71
15 03/23/2018 15:05:58 -70.08, 129.78 111.11 03/23/2018 15:06:08 -70.07, 129.71 111.12 2.73 10
16 03/23/2018 15:56:42 69.97, -62.75 68.76 03/23/2018 15:55:35 69.96, -62.81 68.76 2.81 67




NCC Satellite Simultaneous Nadir Overpasses (SNOs) Prediction Service
